TimeEDT,TemperatureF,Dew PointF,Humidity,Sea Level PressureIn,VisibilityMPH,Wind Direction,Wind SpeedMPH,Gust SpeedMPH,PrecipitationIn,Events,Conditions,WindDirDegrees,DateUTC
12:54 AM,42.1,37.0,82,30.19,10.0,Calm,Calm,-,N/A,,Clear,0,2013-05-25 04:54:00
1:54 AM,46.0,35.1,66,30.19,10.0,Calm,Calm,-,N/A,,Clear,0,2013-05-25 05:54:00
2:54 AM,43.0,36.0,76,30.19,10.0,NNW,4.6,-,N/A,,Clear,330,2013-05-25 06:54:00
3:54 AM,41.0,36.0,82,30.21,10.0,NNW,3.5,-,N/A,,Clear,340,2013-05-25 07:54:00
4:54 AM,39.0,36.0,89,30.24,10.0,Calm,Calm,-,N/A,,Clear,0,2013-05-25 08:54:00
5:54 AM,37.0,35.1,93,30.25,10.0,Calm,Calm,-,N/A,,Clear,0,2013-05-25 09:54:00
6:54 AM,42.1,37.9,85,30.26,10.0,Calm,Calm,-,N/A,,Clear,0,2013-05-25 10:54:00
7:54 AM,48.9,37.0,64,30.25,10.0,NE,3.5,-,N/A,,Clear,50,2013-05-25 11:54:00
8:54 AM,54.0,30.0,40,30.25,10.0,Variable,5.8,-,N/A,,Clear,0,2013-05-25 12:54:00
9:54 AM,57.0,30.0,36,30.24,10.0,WNW,9.2,-,N/A,,Clear,300,2013-05-25 13:54:00
10:54 AM,57.0,30.0,36,30.26,10.0,SW,6.9,-,N/A,,Clear,230,2013-05-25 14:54:00
11:54 AM,61.0,30.9,32,30.25,10.0,WNW,8.1,16.1,N/A,,Clear,300,2013-05-25 15:54:00
12:54 PM,66.0,33.1,29,30.21,10.0,WSW,9.2,17.3,N/A,,Clear,240,2013-05-25 16:54:00
1:54 PM,64.9,30.0,27,30.19,10.0,Variable,6.9,-,N/A,,Clear,0,2013-05-25 17:54:00
2:54 PM,70.0,30.0,23,30.17,10.0,West,8.1,16.1,N/A,,Clear,280,2013-05-25 18:54:00
3:54 PM,71.1,27.0,19,30.16,10.0,WNW,8.1,19.6,N/A,,Clear,300,2013-05-25 19:54:00
4:54 PM,71.1,28.0,20,30.14,10.0,WNW,10.4,20.7,N/A,,Clear,290,2013-05-25 20:54:00
5:54 PM,70.0,28.9,22,30.15,10.0,Variable,4.6,-,N/A,,Clear,0,2013-05-25 21:54:00
6:54 PM,68.0,30.0,24,30.16,10.0,WNW,5.8,-,N/A,,Clear,300,2013-05-25 22:54:00
7:54 PM,64.0,32.0,30,30.17,10.0,WNW,4.6,-,N/A,,Clear,300,2013-05-25 23:54:00
8:54 PM,55.0,37.0,51,30.18,10.0,West,3.5,-,N/A,,Clear,280,2013-05-26 00:54:00
9:54 PM,55.0,39.0,55,30.20,10.0,WNW,3.5,-,N/A,,Clear,300,2013-05-26 01:54:00
10:54 PM,55.0,37.9,53,30.22,10.0,Calm,Calm,-,N/A,,Clear,0,2013-05-26 02:54:00
11:54 PM,50.0,37.9,63,30.22,10.0,NW,5.8,-,N/A,,Clear,320,2013-05-26 03:54:00